Regional Weather Roundup
Issued by NWS

Home | Current Version | Previous Version | Text Only | Print | Product List | Glossary On
Versions: 1 2 3 4 5 6 7 8 9 10 11 12 13 14 15 16 17 18 19 20 21 22 23 24 25 26 27 28 29 30 31 32 33 34 35 36 37 38 39 40 41 42 43 44 45 46 47 48 49 50
000
ASPQ40 PGUM 301112
RWRPQ
WEATHER ROUNDUP FOR THE MARIANAS AND MICRONESIA
NATIONAL WEATHER SERVICE TIYAN GU
900 PM CHST SAT AUG 30 2014

GUZ001>004-301200-
MARIANA ISLANDS-

CITY           SKY/WX    TMP DP  RH WIND       PRES   REMARKS
GUAM AIRPORT   PTCLDY    82  75  78 E6        29.79R
ANDERSEN AFB   PTCLDY    79  75  89 NE6       29.80R
ROTA AIRPORT   NOT AVBL
TINIAN AP      NOT AVBL
SAIPAN AP      LGT RAIN  81  79  94 E7        29.78R

$$

PMZ161-301200-
REPUBLIC OF PALAU-

CITY           SKY/WX    TMP DP  RH WIND       PRES   REMARKS
KOROR AP       CLOUDY    79  77  94 CALM      29.78S
KOROR WSO      TSTM      79  77  94 N10       29.76F

$$

PMZ171>174-301200-
FEDERATED STATES OF MICRONESIA-

CITY           SKY/WX    TMP DP  RH WIND       PRES   REMARKS
YAP AIRPORT    CLOUDY    81  77  89 VRB6      29.74R
CHUUK AP       MOCLDY    79  75  89 VRB5      29.77R
POHNPEI AP     NOT AVBL
POHNPEI WSO    PTCLDY    79  77  94 SE3       29.82R
KOSRAE AP      NOT AVBL

$$

PMZ181-301200-
REPUBLIC OF THE MARSHALL ISLANDS-

CITY           SKY/WX    TMP DP  RH WIND       PRES   REMARKS
KWAJALEIN AP   CLEAR     82  72  69 NE3       29.80S
MAJURO AP      NOT AVBL
MAJURO WSO     MOCLDY    82  75  78 VRB2      29.78S

$$



USA.gov is the U.S. government's official web portal to all federal, state and local government web resources and services.